| time (UTC) | temp F | wind direction | speed MPH | gust MPH | rain 1hr in | rain 24hr in | rain mn in | humidity % | barometer mb |
| 20260503033732 | 52 | 323 | 3.0 | 4.0 | 0.00 | 0.00 | 0.00 | 79 | 1019.3 |
| 20260503033224 | 52 | 313 | 2.0 | 4.0 | 0.00 | 0.00 | 0.00 | 79 | 1019.4 |
| 20260503032729 | 52 | 318 | 2.0 | 4.0 | 0.00 | 0.00 | 0.00 | 79 | 1019.3 |
| 20260503032222 | 52 | 347 | 2.0 | 4.0 | 0.00 | 0.00 | 0.00 | 79 | 1019.3 |
| 20260503031734 | 51 | 355 | 3.0 | 4.0 | 0.00 | 0.00 | 0.00 | 79 | 1019.5 |
| 20260503031226 | 51 | 346 | 3.0 | 4.0 | 0.00 | 0.00 | 0.00 | 79 | 1019.5 |
| 20260503030735 | 52 | 333 | 2.0 | 4.0 | 0.00 | 0.00 | 0.00 | 79 | 1019.5 |
| 20260503030219 | 52 | 328 | 2.0 | 3.0 | 0.00 | 0.00 | 0.00 | 78 | 1019.4 |
| 20260503025735 | 52 | 328 | 1.0 | 3.0 | 0.00 | 0.00 | 0.00 | 78 | 1019.4 |
| 20260503025228 | 52 | 325 | 2.0 | 3.0 | 0.00 | 0.00 | 0.00 | 78 | 1019.5 |
| 20260503024730 | 52 | 330 | 2.0 | 3.0 | 0.00 | 0.00 | 0.00 | 78 | 1019.5 |
| 20260503024243 | 52 | 340 | 2.0 | 3.0 | 0.00 | 0.00 | 0.00 | 78 | 1019.4 |
| 20260503023731 | 52 | 334 | 2.0 | 4.0 | 0.00 | 0.00 | 0.00 | 77 | 1019.5 |
| 20260503023222 | 52 | 344 | 2.0 | 4.0 | 0.00 | 0.00 | 0.00 | 77 | 1019.5 |
| 20260503022734 | 52 | 329 | 2.0 | 3.0 | 0.00 | 0.00 | 0.00 | 77 | 1019.7 |
| 20260503022246 | 52 | 349 | 2.0 | 3.0 | 0.00 | 0.00 | 0.00 | 77 | 1019.7 |
| 20260503021731 | 52 | 338 | 2.0 | 4.0 | 0.00 | 0.00 | 0.00 | 77 | 1019.7 |
| 20260503021244 | 52 | 331 | 2.0 | 4.0 | 0.00 | 0.00 | 0.00 | 77 | 1019.7 |
| 20260503020733 | 52 | 329 | 3.0 | 4.0 | 0.00 | 0.00 | 0.00 | 76 | 1019.7 |
| 20260503020223 | 52 | 311 | 2.0 | 3.0 | 0.00 | 0.00 | 0.00 | 76 | 1019.8 |
| 20260503015735 | 53 | 335 | 1.0 | 3.0 | 0.00 | 0.00 | 0.00 | 75 | 1019.7 |
| 20260503015224 | 53 | 339 | 2.0 | 3.0 | 0.00 | 0.00 | 0.00 | 75 | 1019.8 |
| 20260503014736 | 53 | 41 | 0.0 | 3.0 | 0.00 | 0.00 | 0.00 | 74 | 1019.7 |
| 20260503014219 | 53 | 30 | 1.0 | 4.0 | 0.00 | 0.00 | 0.00 | 74 | 1019.7 |
| 20260503013733 | 53 | 29 | 1.0 | 4.0 | 0.00 | 0.00 | 0.00 | 74 | 1019.8 |
| 20260503013247 | 53 | 351 | 2.0 | 4.0 | 0.00 | 0.00 | 0.00 | 74 | 1019.7 |
| 20260503012757 | 53 | 13 | 2.0 | 4.0 | 0.00 | 0.00 | 0.00 | 73 | 1019.8 |
| 20260503012220 | 53 | 10 | 2.0 | 4.0 | 0.00 | 0.00 | 0.00 | 74 | 1019.8 |
| 20260503011734 | 53 | 5 | 2.0 | 4.0 | 0.00 | 0.00 | 0.00 | 73 | 1019.9 |
| 20260503011248 | 53 | 332 | 3.0 | 4.0 | 0.00 | 0.00 | 0.00 | 73 | 1019.9 |
| 20260503010728 | 53 | 28 | 1.0 | 3.0 | 0.00 | 0.00 | 0.00 | 73 | 1020.0 |
| 20260503010239 | 53 | 14 | 1.0 | 3.0 | 0.00 | 0.00 | 0.00 | 73 | 1020.1 |
| 20260503005722 | 53 | 20 | 1.0 | 3.0 | 0.00 | 0.00 | 0.00 | 73 | 1020.1 |
| 20260503005256 | 53 | 11 | 2.0 | 4.0 | 0.00 | 0.00 | 0.00 | 73 | 1020.1 |
| 20260503004743 | 53 | 326 | 3.0 | 4.0 | 0.00 | 0.00 | 0.00 | 73 | 1020.2 |
| 20260503004225 | 53 | 336 | 3.0 | 4.0 | 0.00 | 0.00 | 0.00 | 73 | 1020.2 |
| 20260503003738 | 53 | 355 | 3.0 | 4.0 | 0.00 | 0.00 | 0.00 | 73 | 1020.2 |
| 20260503003251 | 54 | 344 | 3.0 | 4.0 | 0.00 | 0.00 | 0.00 | 73 | 1020.2 |
| 20260503002742 | 54 | 327 | 2.0 | 3.0 | 0.00 | 0.00 | 0.00 | 73 | 1020.3 |
| 20260503002226 | 54 | 336 | 2.0 | 3.0 | 0.00 | 0.00 | 0.00 | 73 | 1020.4 |
| 20260503001739 | 54 | 350 | 1.0 | 4.0 | 0.00 | 0.00 | 0.00 | 73 | 1020.4 |
| 20260503001232 | 54 | 336 | 2.0 | 4.0 | 0.00 | 0.00 | 0.00 | 73 | 1020.4 |
| 20260503000741 | 54 | 336 | 2.0 | 3.0 | 0.00 | 0.00 | 0.00 | 72 | 1020.5 |
| 20260503000240 | 54 | 344 | 2.0 | 3.0 | 0.00 | 0.00 | 0.00 | 72 | 1020.5 |
| 20260502235743 | 54 | 355 | 0.0 | 0.0 | 0.00 | 0.00 | 0.00 | 73 | 1020.6 |
| 20260502235232 | 54 | 355 | 0.0 | 0.0 | 0.00 | 0.00 | 0.00 | 72 | 1020.6 |
| 20260502234724 | 54 | 355 | 0.0 | 2.0 | 0.00 | 0.00 | 0.00 | 72 | 1020.7 |
| 20260502234222 | 54 | 5 | 1.0 | 4.0 | 0.00 | 0.00 | 0.00 | 72 | 1020.7 |
| 20260502233735 | 54 | 346 | 1.0 | 4.0 | 0.00 | 0.00 | 0.00 | 72 | 1020.7 |
| 20260502233248 | 54 | 18 | 2.0 | 4.0 | 0.00 | 0.00 | 0.00 | 72 | 1020.8 |
| 20260502232731 | 54 | 20 | 2.0 | 4.0 | 0.00 | 0.00 | 0.00 | 73 | 1020.9 |
| 20260502232245 | 54 | 347 | 2.0 | 3.0 | 0.00 | 0.00 | 0.00 | 73 | 1020.8 |
| 20260502231736 | 54 | 350 | 0.0 | 3.0 | 0.00 | 0.00 | 0.00 | 73 | 1020.9 |
| 20260502231241 | 54 | 355 | 2.0 | 3.0 | 0.00 | 0.00 | 0.00 | 73 | 1021.0 |
| 20260502230750 | 54 | 346 | 1.0 | 2.0 | 0.00 | 0.00 | 0.00 | 73 | 1021.0 |
| 20260502230227 | 54 | 344 | 0.0 | 3.0 | 0.00 | 0.00 | 0.00 | 72 | 1020.9 |
| 20260502225759 | 54 | 344 | 1.0 | 3.0 | 0.00 | 0.00 | 0.00 | 72 | 1021.0 |
| 20260502225233 | 54 | 335 | 1.0 | 3.0 | 0.00 | 0.00 | 0.00 | 72 | 1021.0 |
| 20260502224746 | 54 | 333 | 1.0 | 3.0 | 0.00 | 0.00 | 0.00 | 72 | 1021.0 |
| 20260502224230 | 55 | 346 | 2.0 | 3.0 | 0.00 | 0.00 | 0.00 | 72 | 1021.0 |
| 20260502223737 | 55 | 331 | 2.0 | 4.0 | 0.00 | 0.00 | 0.00 | 72 | 1021.0 |
| 20260502223235 | 55 | 333 | 2.0 | 4.0 | 0.00 | 0.00 | 0.00 | 72 | 1021.0 |
| 20260502222725 | 55 | 338 | 2.0 | 3.0 | 0.00 | 0.00 | 0.00 | 72 | 1021.0 |
| 20260502222236 | 55 | 346 | 2.0 | 3.0 | 0.00 | 0.00 | 0.00 | 72 | 1021.0 |
| 20260502221733 | 55 | 338 | 2.0 | 3.0 | 0.00 | 0.00 | 0.00 | 72 | 1021.0 |
| 20260502221226 | 55 | 335 | 2.0 | 4.0 | 0.00 | 0.00 | 0.00 | 72 | 1021.0 |
| 20260502220734 | 55 | 338 | 2.0 | 4.0 | 0.00 | 0.00 | 0.00 | 73 | 1021.1 |
| 20260502220248 | 55 | 339 | 2.0 | 3.0 | 0.00 | 0.00 | 0.00 | 73 | 1021.0 |
| 20260502215741 | 55 | 338 | 2.0 | 3.0 | 0.00 | 0.00 | 0.00 | 73 | 1021.0 |
| 20260502215222 | 55 | 331 | 2.0 | 3.0 | 0.00 | 0.00 | 0.00 | 73 | 1021.0 |
| 20260502214800 | 55 | 336 | 2.0 | 3.0 | 0.00 | 0.00 | 0.00 | 72 | 1021.0 |
| 20260502214222 | 55 | 330 | 2.0 | 3.0 | 0.00 | 0.00 | 0.00 | 73 | 1021.0 |
| 20260502213752 | 55 | 336 | 2.0 | 3.0 | 0.00 | 0.00 | 0.00 | 73 | 1021.0 |
| 20260502213224 | 55 | 355 | 1.0 | 3.0 | 0.00 | 0.00 | 0.00 | 73 | 1021.1 |
| 20260502212737 | 55 | 339 | 1.0 | 3.0 | 0.00 | 0.00 | 0.00 | 73 | 1021.1 |
| 20260502212222 | 55 | 327 | 1.0 | 2.0 | 0.00 | 0.00 | 0.00 | 73 | 1021.1 |
| 20260502211735 | 55 | 327 | 1.0 | 2.0 | 0.00 | 0.00 | 0.00 | 73 | 1021.1 |
| 20260502211246 | 55 | 327 | 2.0 | 2.0 | 0.00 | 0.00 | 0.00 | 73 | 1021.2 |
| 20260502210734 | 55 | 323 | 0.0 | 0.0 | 0.00 | 0.00 | 0.00 | 73 | 1021.1 |
| 20260502210246 | 56 | 323 | 0.0 | 2.0 | 0.00 | 0.00 | 0.00 | 72 | 1021.1 |
| 20260502205727 | 56 | 323 | 0.0 | 2.0 | 0.00 | 0.00 | 0.00 | 72 | 1021.1 |
| 20260502205219 | 56 | 323 | 1.0 | 2.0 | 0.00 | 0.00 | 0.00 | 72 | 1021.1 |
| 20260502204733 | 56 | 321 | 2.0 | 2.0 | 0.00 | 0.00 | 0.00 | 71 | 1021.1 |
| 20260502204247 | 56 | 321 | 1.0 | 2.0 | 0.00 | 0.00 | 0.00 | 71 | 1021.1 |
| 20260502203731 | 56 | 321 | 1.0 | 2.0 | 0.00 | 0.00 | 0.00 | 71 | 1021.2 |
| 20260502203301 | 56 | 316 | 1.0 | 3.0 | 0.00 | 0.00 | 0.00 | 70 | 1021.1 |
| 20260502202730 | 57 | 328 | 1.0 | 3.0 | 0.00 | 0.00 | 0.00 | 68 | 1021.2 |
| 20260502202243 | 57 | 328 | 1.0 | 3.0 | 0.00 | 0.00 | 0.00 | 68 | 1021.1 |
| 20260502201727 | 57 | 323 | 2.0 | 3.0 | 0.00 | 0.00 | 0.00 | 67 | 1021.1 |
| 20260502201239 | 57 | 323 | 0.0 | 2.0 | 0.00 | 0.00 | 0.00 | 65 | 1021.1 |
| 20260502200747 | 58 | 323 | 1.0 | 2.0 | 0.00 | 0.00 | 0.00 | 64 | 1021.0 |
| 20260502200220 | 58 | 323 | 0.0 | 2.0 | 0.00 | 0.00 | 0.00 | 63 | 1020.9 |
| 20260502195730 | 59 | 323 | 0.0 | 2.0 | 0.00 | 0.00 | 0.00 | 62 | 1020.9 |
| 20260502195235 | 59 | 323 | 1.0 | 2.0 | 0.00 | 0.00 | 0.00 | 61 | 1020.9 |
| 20260502194810 | 59 | 211 | 0.0 | 0.0 | 0.00 | 0.00 | 0.00 | 62 | 1020.9 |
| 20260502194300 | 60 | 211 | 0.0 | 0.0 | 0.00 | 0.00 | 0.00 | 62 | 1020.9 |
| 20260502193723 | 60 | 211 | 0.0 | 0.0 | 0.00 | 0.00 | 0.00 | 62 | 1020.9 |
| 20260502193234 | 60 | 211 | 0.0 | 0.0 | 0.00 | 0.00 | 0.00 | 62 | 1020.8 |
| 20260502192744 | 61 | 211 | 0.0 | 0.0 | 0.00 | 0.00 | 0.00 | 61 | 1020.9 |
| 20260502192237 | 61 | 211 | 0.0 | 0.0 | 0.00 | 0.00 | 0.00 | 60 | 1020.8 |
| 20260502191730 | 61 | 211 | 0.0 | 0.0 | 0.00 | 0.00 | 0.00 | 58 | 1020.8 |
| 20260502191236 | 62 | 211 | 0.0 | 0.0 | 0.00 | 0.00 | 0.00 | 57 | 1020.9 |
| 20260502190726 | 62 | 211 | 0.0 | 0.0 | 0.00 | 0.00 | 0.00 | 56 | 1020.9 |
| 20260502190240 | 62 | 211 | 0.0 | 0.0 | 0.00 | 0.00 | 0.00 | 56 | 1020.9 |
| 20260502185752 | 63 | 211 | 0.0 | 0.0 | 0.00 | 0.00 | 0.00 | 55 | 1020.7 |
| 20260502185244 | 64 | 211 | 0.0 | 0.0 | 0.00 | 0.00 | 0.00 | 56 | 1020.7 |
| 20260502184727 | 64 | 211 | 0.0 | 0.0 | 0.00 | 0.00 | 0.00 | 54 | 1020.7 |
| 20260502184220 | 65 | 211 | 0.0 | 0.0 | 0.00 | 0.00 | 0.00 | 53 | 1020.6 |
| 20260502183732 | 66 | 211 | 0.0 | 0.0 | 0.00 | 0.00 | 0.00 | 52 | 1020.8 |
| 20260502183242 | 66 | 211 | 0.0 | 1.0 | 0.00 | 0.00 | 0.00 | 50 | 1020.6 |
| 20260502182747 | 67 | 200 | 0.0 | 1.0 | 0.00 | 0.00 | 0.00 | 48 | 1020.6 |
| 20260502182224 | 67 | 200 | 0.0 | 3.0 | 0.00 | 0.00 | 0.00 | 45 | 1020.6 |
| 20260502181757 | 68 | 200 | 2.0 | 3.0 | 0.00 | 0.00 | 0.00 | 44 | 1020.6 |
| 20260502181228 | 68 | 200 | 1.0 | 3.0 | 0.00 | 0.00 | 0.00 | 44 | 1020.6 |
| 20260502180732 | 68 | 200 | 0.0 | 3.0 | 0.00 | 0.00 | 0.00 | 44 | 1020.6 |
| 20260502180246 | 68 | 200 | 1.0 | 3.0 | 0.00 | 0.00 | 0.00 | 43 | 1020.6 |
| 20260502170248 | 71 | 236 | 2.0 | 5.0 | 0.00 | 0.00 | 0.00 | 39 | 1020.4 |
| 20260502164241 | 72 | 178 | 0.0 | 5.0 | 0.00 | 0.00 | 0.00 | 39 | 1020.5 |
| 20260502163732 | 72 | 186 | 1.0 | 5.0 | 0.00 | 0.00 | 0.00 | 40 | 1020.5 |
| 20260502163246 | 73 | 295 | 0.0 | 6.0 | 0.00 | 0.00 | 0.00 | 40 | 1020.6 |
| 20260502162731 | 73 | 355 | 2.0 | 7.0 | 0.00 | 0.00 | 0.00 | 38 | 1020.7 |
| 20260502162242 | 73 | 227 | 4.0 | 6.0 | 0.00 | 0.00 | 0.00 | 38 | 1020.7 |
| 20260502161754 | 73 | 283 | 2.0 | 5.0 | 0.00 | 0.00 | 0.00 | 38 | 1020.8 |
| 20260502161246 | 73 | 178 | 3.0 | 5.0 | 0.00 | 0.00 | 0.00 | 37 | 1020.9 |
| 20260502160734 | 73 | 264 | 1.0 | 6.0 | 0.00 | 0.00 | 0.00 | 37 | 1021.0 |
| 20260502160228 | 73 | 201 | 3.0 | 8.0 | 0.00 | 0.00 | 0.00 | 37 | 1020.9 |
| 20260502152224 | 75 | 242 | 3.0 | 9.0 | 0.00 | 0.00 | 0.00 | 35 | 1021.2 |
| 20260502151757 | 75 | 175 | 2.0 | 13.0 | 0.00 | 0.00 | 0.00 | 36 | 1021.3 |
| 20260502151230 | 74 | 193 | 5.0 | 12.0 | 0.00 | 0.00 | 0.00 | 35 | 1021.3 |
| 20260502150740 | 74 | 178 | 5.0 | 9.0 | 0.00 | 0.00 | 0.00 | 36 | 1021.3 |
| 20260502150252 | 74 | 199 | 4.0 | 8.0 | 0.00 | 0.00 | 0.00 | 36 | 1021.4 |
| 20260502130732 | 73 | 195 | 1.0 | 7.0 | 0.00 | 0.00 | 0.00 | 42 | 1023.1 |
| 20260502130246 | 73 | 181 | 4.0 | 9.0 | 0.00 | 0.00 | 0.00 | 39 | 1023.0 |
| 20260502123741 | 72 | 344 | 4.0 | 8.0 | 0.00 | 0.00 | 0.00 | 41 | 1023.4 |
| 20260502123231 | 72 | 327 | 2.0 | 9.0 | 0.00 | 0.00 | 0.00 | 38 | 1023.6 |
| 20260502122735 | 72 | 202 | 5.0 | 9.0 | 0.00 | 0.00 | 0.00 | 38 | 1023.7 |
| 20260502122229 | 72 | 162 | 3.0 | 9.0 | 0.00 | 0.00 | 0.00 | 39 | 1023.7 |
| 20260502121742 | 72 | 257 | 4.0 | 9.0 | 0.00 | 0.00 | 0.00 | 39 | 1023.8 |
| 20260502121233 | 72 | 260 | 4.0 | 10.0 | 0.00 | 0.00 | 0.00 | 38 | 1023.8 |
| 20260502120742 | 72 | 197 | 4.0 | 10.0 | 0.00 | 0.00 | 0.00 | 38 | 1023.9 |
| 20260502120255 | 72 | 195 | 4.0 | 8.0 | 0.00 | 0.00 | 0.00 | 41 | 1023.9 |
| 20260502115736 | 72 | 215 | 4.0 | 7.0 | 0.00 | 0.00 | 0.00 | 40 | 1024.0 |
| 20260502115230 | 72 | 160 | 1.0 | 6.0 | 0.00 | 0.00 | 0.00 | 40 | 1024.1 |
| 20260502114744 | 71 | 166 | 3.0 | 9.0 | 0.00 | 0.00 | 0.00 | 42 | 1024.0 |
| 20260502114246 | 71 | 167 | 3.0 | 9.0 | 0.00 | 0.00 | 0.00 | 42 | 1024.1 |
| 20260502113730 | 70 | 15 | 2.0 | 9.0 | 0.00 | 0.00 | 0.00 | 40 | 1024.3 |
| 20260502113223 | 71 | 246 | 4.0 | 10.0 | 0.00 | 0.00 | 0.00 | 41 | 1024.4 |
| 20260502112737 | 70 | 199 | 6.0 | 10.0 | 0.00 | 0.00 | 0.00 | 40 | 1024.4 |
| 20260502112247 | 70 | 355 | 2.0 | 8.0 | 0.00 | 0.00 | 0.00 | 41 | 1024.5 |
| 20260502111727 | 70 | 309 | 4.0 | 8.0 | 0.00 | 0.00 | 0.00 | 43 | 1024.7 |
| 20260502111259 | 70 | 299 | 1.0 | 5.0 | 0.00 | 0.00 | 0.00 | 41 | 1024.7 |
| 20260502110743 | 70 | 119 | 1.0 | 7.0 | 0.00 | 0.00 | 0.00 | 41 | 1024.7 |
| 20260502110230 | 71 | 290 | 2.0 | 7.0 | 0.00 | 0.00 | 0.00 | 39 | 1024.9 |
| 20260502105737 | 70 | 218 | 3.0 | 9.0 | 0.00 | 0.00 | 0.00 | 44 | 1024.9 |
| 20260502105247 | 70 | 226 | 5.0 | 9.0 | 0.00 | 0.00 | 0.00 | 42 | 1025.0 |
| 20260502104739 | 70 | 205 | 1.0 | 8.0 | 0.00 | 0.00 | 0.00 | 41 | 1025.1 |
| 20260502104236 | 70 | 138 | 2.0 | 10.0 | 0.00 | 0.00 | 0.00 | 43 | 1025.2 |
| 20260502103721 | 70 | 211 | 3.0 | 9.0 | 0.00 | 0.00 | 0.00 | 44 | 1025.3 |
| 20260502103233 | 69 | 232 | 6.0 | 15.0 | 0.00 | 0.00 | 0.00 | 44 | 1025.4 |
| 20260502102745 | 69 | 277 | 6.0 | 15.0 | 0.00 | 0.00 | 0.00 | 44 | 1025.4 |
| 20260502102230 | 70 | 275 | 4.0 | 7.0 | 0.00 | 0.00 | 0.00 | 42 | 1025.4 |
| 20260502101803 | 69 | 192 | 3.0 | 6.0 | 0.00 | 0.00 | 0.00 | 46 | 1025.4 |
| 20260502101225 | 69 | 185 | 4.0 | 10.0 | 0.00 | 0.00 | 0.00 | 43 | 1025.6 |
| 20260502100728 | 69 | 173 | 4.0 | 10.0 | 0.00 | 0.00 | 0.00 | 44 | 1025.6 |
| 20260502100220 | 69 | 228 | 2.0 | 7.0 | 0.00 | 0.00 | 0.00 | 46 | 1025.7 |
| 20260502091324 | 68 | 184 | 4.0 | 7.0 | 0.00 | 0.00 | 0.00 | 47 | 1026.2 |
| 20260502090722 | 68 | 223 | 3.0 | 5.0 | 0.00 | 0.00 | 0.00 | 47 | 1026.2 |
| 20260502090236 | 68 | 159 | 2.0 | 6.0 | 0.00 | 0.00 | 0.00 | 47 | 1026.3 |
| 20260502071221 | 64 | 60 | 1.0 | 2.0 | 0.00 | 0.00 | 0.00 | 53 | 1026.5 |
| 20260502070729 | 64 | 44 | 0.0 | 3.0 | 0.00 | 0.00 | 0.00 | 53 | 1026.5 |
| 20260502070220 | 63 | 72 | 2.0 | 3.0 | 0.00 | 0.00 | 0.00 | 59 | 1026.5 |
| 20260502065729 | 63 | 66 | 1.0 | 3.0 | 0.00 | 0.00 | 0.00 | 63 | 1026.5 |
| 20260502065243 | 62 | 46 | 1.0 | 2.0 | 0.00 | 0.00 | 0.00 | 62 | 1026.5 |
| 20260502064722 | 62 | 90 | 0.0 | 2.0 | 0.00 | 0.00 | 0.00 | 64 | 1026.6 |
| 20260502064252 | 61 | 295 | 1.0 | 3.0 | 0.00 | 0.00 | 0.00 | 65 | 1026.6 |
| 20260502063724 | 61 | 300 | 1.0 | 3.0 | 0.00 | 0.00 | 0.00 | 66 | 1026.6 |
| 20260502063237 | 60 | 311 | 2.0 | 3.0 | 0.00 | 0.00 | 0.00 | 68 | 1026.5 |
| 20260502062722 | 59 | 5 | 2.0 | 4.0 | 0.00 | 0.00 | 0.00 | 69 | 1026.6 |
| 20260502062233 | 59 | 13 | 3.0 | 4.0 | 0.00 | 0.00 | 0.00 | 69 | 1026.6 |
| 20260502061742 | 58 | 355 | 2.0 | 5.0 | 0.00 | 0.00 | 0.00 | 70 | 1026.5 |
| 20260502061234 | 58 | 9 | 3.0 | 5.0 | 0.00 | 0.00 | 0.00 | 70 | 1026.5 |
| 20260502060723 | 57 | 360 | 3.0 | 4.0 | 0.00 | 0.00 | 0.00 | 71 | 1026.6 |
| 20260502060257 | 57 | 51 | 3.0 | 4.0 | 0.00 | 0.00 | 0.00 | 72 | 1026.5 |
| 20260502055747 | 56 | 340 | 3.0 | 4.0 | 0.00 | 0.00 | 0.00 | 72 | 1026.6 |
| 20260502055230 | 56 | 11 | 3.0 | 4.0 | 0.00 | 0.00 | 0.00 | 74 | 1026.6 |
| 20260502054724 | 55 | 34 | 2.0 | 4.0 | 0.00 | 0.00 | 0.00 | 75 | 1026.6 |
| 20260502054258 | 54 | 346 | 2.0 | 4.0 | 0.00 | 0.00 | 0.00 | 76 | 1026.6 |
| 20260502053751 | 54 | 336 | 2.0 | 4.0 | 0.00 | 0.00 | 0.00 | 78 | 1026.6 |
| 20260502053231 | 53 | 342 | 3.0 | 4.0 | 0.00 | 0.00 | 0.00 | 79 | 1026.6 |
| 20260502052725 | 52 | 360 | 2.0 | 4.0 | 0.00 | 0.00 | 0.00 | 81 | 1026.5 |
| 20260502052233 | 51 | 5 | 2.0 | 4.0 | 0.00 | 0.00 | 0.00 | 82 | 1026.6 |
| 20260502051746 | 50 | 16 | 3.0 | 4.0 | 0.00 | 0.00 | 0.00 | 84 | 1026.5 |
| 20260502051230 | 49 | 5 | 3.0 | 4.0 | 0.00 | 0.00 | 0.00 | 85 | 1026.6 |
| 20260502050738 | 48 | 11 | 3.0 | 4.0 | 0.00 | 0.00 | 0.00 | 85 | 1026.5 |
| 20260502050231 | 48 | 349 | 3.0 | 4.0 | 0.00 | 0.00 | 0.00 | 85 | 1026.5 |
| 20260502045740 | 48 | 345 | 3.0 | 4.0 | 0.00 | 0.00 | 0.00 | 85 | 1026.4 |
| 20260502045223 | 47 | 355 | 2.0 | 4.0 | 0.00 | 0.00 | 0.00 | 86 | 1026.5 |
| 20260502044737 | 47 | 346 | 2.0 | 4.0 | 0.00 | 0.00 | 0.00 | 86 | 1026.5 |
| 20260502044231 | 47 | 13 | 2.0 | 4.0 | 0.00 | 0.00 | 0.00 | 86 | 1026.5 |
| 20260502043736 | 46 | 344 | 2.0 | 3.0 | 0.00 | 0.00 | 0.00 | 86 | 1026.4 |
| 20260502043229 | 46 | 348 | 2.0 | 3.0 | 0.00 | 0.00 | 0.00 | 86 | 1026.4 |
| 20260502042720 | 46 | 345 | 1.0 | 2.0 | 0.00 | 0.00 | 0.00 | 86 | 1026.5 |
| 20260502042227 | 46 | 336 | 1.0 | 3.0 | 0.00 | 0.00 | 0.00 | 86 | 1026.5 |
| 20260502041737 | 46 | 355 | 2.0 | 3.0 | 0.00 | 0.00 | 0.00 | 86 | 1026.4 |
| 20260502041222 | 46 | 345 | 2.0 | 3.0 | 0.00 | 0.00 | 0.00 | 86 | 1026.4 |
| 20260502040732 | 46 | 331 | 2.0 | 3.0 | 0.00 | 0.00 | 0.00 | 86 | 1026.4 |
| 20260502040224 | 46 | 338 | 2.0 | 3.0 | 0.00 | 0.00 | 0.00 | 86 | 1026.4 |
| 20260502035733 | 46 | 348 | 1.0 | 2.0 | 0.00 | 0.00 | 0.00 | 86 | 1026.4 |
| 20260502035238 | 46 | 348 | 1.0 | 3.0 | 0.00 | 0.00 | 0.00 | 85 | 1026.4 |
| 20260502034729 | 46 | 5 | 2.0 | 3.0 | 0.00 | 0.00 | 0.00 | 85 | 1026.5 |
| 20260502034239 | 46 | 337 | 1.0 | 3.0 | 0.00 | 0.00 | 0.00 | 85 | 1026.4 |